Regional Weather Roundup
Issued by NWS Sterling, VA

Home | Current Version | Previous Version | Graphics & Text | Print | Product List | Glossary On
Versions: 1 2 3 4 5 6 7 8 9 10 11 12 13 14 15 16 17 18 19 20 21 22 23 24 25 26 27 28 29 30 31 32 33 34 35 36 37 38 39 40 41 42 43 44 45 46 47 48 49 50
000
ASUS41 KLWX 300410
RWRLWX

REGIONAL WEATHER ROUNDUP
NATIONAL WEATHER SERVICE BALTIMORE MD/WASHINGTON DC
1200 AM EDT TUE SEP 30 2014

Note: "FAIR" indicates few or no clouds below 12,000 feet
with no significant weather and/or obstructions to visibility.
 TC=TEMPERATURE CELSIUS

 * =Non NWS site. Station does not report precipitation (e.g. rain,
    snow, etc.), thunder, or fog.

DCZ001-MDZ009-015-VAZ040>042-051-053>054-300500-
WASHINGTON METRO

CITY           SKY/WX    TMP DP  RH WIND       PRES   REMARKS
WASHINGTON NAT CLOUDY    70  64  83 S7        29.95S
DULLES         CLOUDY    63  62  97 S3        29.94F
ANDREWS AFB    CLOUDY    64  64 100 S7        29.94F
QUANTICO       CLOUDY    66  63  90 SW6       29.96S
COLLEGE PARK*  CLOUDY    64  64 100 CALM      29.94S
LEESBURG*      CLOUDY    64  64 100 S3        29.94F
MANASSAS*      CLOUDY    64  64 100 SE6       29.94F
GAITHERSBURG*  CLOUDY    64  63  94 CALM      29.98F

$$

MDZ006>007-011-014-300500-
BALTIMORE METRO

CITY           SKY/WX    TMP DP  RH WIND       PRES   REMARKS
BWI AIRPORT    CLOUDY    65  63  93 CALM      29.93F
MD SCIENCE CTR   N/A     68  63  84 MISG      29.94F
MARTIN STATE   CLOUDY    68  68 100 CALM      29.95S
ANNAPOLIS        N/A     67  63  87 CALM      29.94F
FORT MEADE*    CLOUDY    63  61  94 CALM      29.96F

$$

MDZ012-015-019>023-300500-
MARYLAND EASTERN SHORE

CITY           SKY/WX    TMP DP  RH WIND       PRES   REMARKS
OCEAN CITY     LGT RAIN N/A N/A N/A NW5       29.95S
SALISBURY      LGT RAIN  67  63  87 NW3       29.96S
BAY BRIDGE AP*   N/A     66  66 100 CALM      29.94F
CAMBRIDGE*     CLOUDY    63  61  94 CALM      29.94F
EASTON*        CLOUDY    66  66 100 CALM      29.98F

$$

MDZ017>025-300500-
SOUTHERN MARYLAND

CITY           SKY/WX    TMP DP  RH WIND       PRES   REMARKS
PATUXENT RIVER CLOUDY    65  62  90 CALM      29.95S
ST INIGOES     CLOUDY    64  59  83 CALM      29.95F
LEONARDTOWN*   CLOUDY    63  61  94 CALM      29.97S

$$

MDZ003>005-300500-
NORTH CENTRAL MARYLAND

CITY           SKY/WX    TMP DP  RH WIND       PRES   REMARKS
FREDERICK*     CLOUDY    66  64  94 CALM      29.96F
HAGERSTOWN APT MOCLDY    67  62  84 CALM      29.93F
WESTMINSTER*   CLOUDY    64  63  94 S5        29.94F

$$

MDZ501>502-300500-
WESTERN MARYLAND

CITY           SKY/WX    TMP DP  RH WIND       PRES   REMARKS
OAKLAND*       PTCLDY    59  55  88 SW5       30.00F
CUMBERLAND*    NOT AVBL

$$

VAZ025>031-300500-
SHENANDOAH VALLEY

CITY           SKY/WX    TMP DP  RH WIND       PRES   REMARKS
WINCHESTER*    MOCLDY    64  61  88 CALM      29.94S
STAUNTON*      PTCLDY    58  55  89 CALM      29.98S

$$

WVZ021-048>050-054>055-300500-
EASTERN WEST VIRGINIA PANHANDLE

CITY           SKY/WX    TMP DP  RH WIND       PRES   REMARKS
MARTINSBURG    CLOUDY    65  60  84 SE3       29.94S
PETERSBURG*    CLOUDY   N/A N/A N/A CALM      29.96F

$$

VAZ036>039-050-300500-
CENTRAL FOOTHILLS

CITY           SKY/WX    TMP DP  RH WIND       PRES   REMARKS
CHARLOTTESVILL FOG       64  64 100 S6        29.95S VSB 3/4
ORANGE*        FOG       64  63  94 CALM      29.96F VSB 3/4

$$

VAZ055>057-300500-
NORTH AND CENTRAL PIEDMONT

CITY           SKY/WX    TMP DP  RH WIND       PRES   REMARKS
FREDERICKSBRG* MOCLDY    64  64 100 CALM      29.94F
STAFFORD*      CLOUDY    60  60 100 CALM      29.99F FOG

$$

NCZ024-NYZ072-PAZ021-071-VAZ022-071-300500-
OTHER REGIONAL OBSERVATIONS

CITY           SKY/WX    TMP DP  RH WIND       PRES   REMARKS
NEW YORK CITY  CLOUDY    71  57  61 CALM      29.95F
PHILADELPHIA   CLOUDY    67  63  87 SW6       29.94F
PITTSBURGH     CLEAR     60  56  86 CALM      29.91F
ROANOKE        PTCLDY    63  60  90 CALM      29.99S
RICHMOND       CLOUDY    65  64  97 S5        29.96S
RALEIGH        LGT RAIN  65  62  90 CALM      29.98F FOG

$$

ANZ530>537-300500-
MARINE OBSERVATIONS

STATION/POSITION TIME  TEMP    WIND        PRES
                       AIR SEA DIR/SP/G
                 (UTC) (F)     (DEG/KT/KT) (MB)
THOMAS PT LIGHT  0400   68 71  210/  7/  7 1014.9F
BALT KEY BRIDGE  0400   67     220/  3/  3 1013.6
COVE POINT       0400   66     210/  5/  6 1014.0
LEWISETTA        0400   65 71  210/  4/  4 1013.8
SOLOMONS ISLAND  0400      72                N/A
PINEY POINT      0400          240/  6/  7   N/A

$$



USA.gov is the U.S. government's official web portal to all federal, state and local government web resources and services.